Date,Installs,Update checks
2020-06-07,1,0
2020-06-08,0,0
2020-06-09,1,0
2020-06-10,64,2
2020-06-11,100,11
2020-06-12,124,30
2020-06-13,120,27
2020-06-14,96,38
2020-06-15,74,35
2020-06-16,53,30
2020-06-17,42,17
2020-06-18,39,28
2020-06-19,36,26
2020-06-20,43,28
2020-06-21,39,33
2020-06-22,33,35
2020-06-23,38,37
2020-06-24,40,33
2020-06-25,34,36
2020-06-26,21,32
2020-06-27,23,33
2020-06-28,10,26
2020-06-29,8,34
2020-06-30,20,38
2020-07-01,18,35
2020-07-02,21,31
2020-07-03,33,35
2020-07-04,21,23
2020-07-05,24,33
2020-07-06,23,34
2020-07-07,28,43
2020-07-08,34,35
2020-07-09,21,36
2020-07-10,20,35
2020-07-11,25,36
2020-07-12,15,32
2020-07-13,12,30
2020-07-14,12,33
2020-07-15,18,37
2020-07-16,10,30
2020-07-17,12,30
2020-07-18,19,34
2020-07-19,14,30
2020-07-20,16,34
2020-07-21,8,29
2020-07-22,9,31
2020-07-23,11,29
2020-07-24,11,29
2020-07-25,13,30
2020-07-26,12,28
2020-07-27,12,29
2020-07-28,16,26
2020-07-29,6,30
2020-07-30,10,25
2020-07-31,10,16
2020-08-01,14,19
2020-08-02,11,28
2020-08-03,8,22
2020-08-04,17,22
2020-08-05,19,25
2020-08-06,12,17
2020-08-07,19,27
2020-08-08,20,25
2020-08-09,7,27
2020-08-10,10,18
2020-08-11,11,26
2020-08-12,16,28
2020-08-13,12,27
2020-08-14,10,31
2020-08-15,9,18
2020-08-16,19,21
2020-08-17,4,20
2020-08-18,12,24
2020-08-19,14,24
2020-08-20,13,24
2020-08-21,8,30
2020-08-22,11,30
2020-08-23,4,24
2020-08-24,6,34
2020-08-25,9,27
2020-08-26,4,27
2020-08-27,7,26
2020-08-28,4,26
2020-08-29,6,26
2020-08-30,14,25
2020-08-31,15,30
2020-09-01,12,29
2020-09-02,15,26
2020-09-03,16,20
2020-09-04,8,23
2020-09-05,8,21
2020-09-06,7,25
2020-09-07,5,28
2020-09-08,10,24
2020-09-09,10,31
2020-09-10,7,24
2020-09-11,8,23
2020-09-12,7,23
2020-09-13,16,28
2020-09-14,15,26
2020-09-15,18,28
2020-09-16,7,26
2020-09-17,7,21
2020-09-18,8,24
2020-09-19,19,30
2020-09-20,14,28
2020-09-21,13,21
2020-09-22,19,31
2020-09-23,10,22
2020-09-24,12,25
2020-09-25,8,29
2020-09-26,5,25
2020-09-27,3,26
2020-09-28,2,21
2020-09-29,8,22
2020-09-30,10,25
2020-10-01,6,28
2020-10-02,6,23
2020-10-03,17,23
2020-10-04,10,21
2020-10-05,10,22
2020-10-06,9,11
2020-10-07,9,24
2020-10-08,10,22
2020-10-09,17,25
2020-10-10,15,20
2020-10-11,14,18
2020-10-12,11,23
2020-10-13,15,25
2020-10-14,12,21
2020-10-15,8,17
2020-10-16,5,25
2020-10-17,10,21
2020-10-18,6,25
2020-10-19,5,26
2020-10-20,4,31
2020-10-21,2,27
2020-10-22,4,23
2020-10-23,10,27
2020-10-24,18,24
2020-10-25,17,22
2020-10-26,9,25
2020-10-27,6,27
2020-10-28,5,27
2020-10-29,3,23
2020-10-30,7,18
2020-10-31,6,21
2020-11-01,4,21
2020-11-02,3,14
2020-11-03,7,20
2020-11-04,8,23
2020-11-05,9,24
2020-11-06,7,21
2020-11-07,5,23
2020-11-08,10,25
2020-11-09,13,18
2020-11-10,3,25
2020-11-11,9,28
2020-11-12,14,22
2020-11-13,15,17
2020-11-14,14,27
2020-11-15,14,21
2020-11-16,10,18
2020-11-17,11,20
2020-11-18,6,24
2020-11-19,4,22
2020-11-20,18,20
2020-11-21,22,21
2020-11-22,14,23
2020-11-23,10,19
2020-11-24,14,26
2020-11-25,10,19
2020-11-26,13,19
2020-11-27,12,31
2020-11-28,19,21
2020-11-29,19,19
2020-11-30,17,25
2020-12-01,13,32
2020-12-02,10,29
2020-12-03,10,21
2020-12-04,9,29
2020-12-05,9,20
2020-12-06,10,21
2020-12-07,10,17
2020-12-08,8,20
2020-12-09,13,20
2020-12-10,13,16
2020-12-11,12,22
2020-12-12,12,23
2020-12-13,7,23
2020-12-14,5,26
2020-12-15,11,22
2020-12-16,14,23
2020-12-17,11,25
2020-12-18,10,19
2020-12-19,17,24
2020-12-20,15,27
2020-12-21,6,19
2020-12-22,8,19
2020-12-23,10,21
2020-12-24,16,23
2020-12-25,7,22
2020-12-26,15,17
2020-12-27,13,24
2020-12-28,8,21
2020-12-29,6,18
2020-12-30,7,20
2020-12-31,10,26
2021-01-01,4,14
2021-01-02,10,23
2021-01-03,4,23
2021-01-04,8,14
2021-01-05,6,24
2021-01-06,9,13
2021-01-07,11,16
2021-01-08,7,25
2021-01-09,7,19
2021-01-10,8,23
2021-01-11,4,16
2021-01-12,2,18
2021-01-13,4,19
2021-01-14,8,17
2021-01-15,4,12
2021-01-16,9,17
2021-01-17,12,14
2021-01-18,7,18
2021-01-19,4,14
2021-01-20,1,17
2021-01-21,5,25
2021-01-22,2,18
2021-01-23,12,19
2021-01-24,10,25
2021-01-25,7,18
2021-01-26,4,16
2021-01-27,3,16
2021-01-28,6,18
2021-01-29,4,15
2021-01-30,4,8
2021-01-31,2,13
2021-02-01,7,14
2021-02-02,2,17
2021-02-03,6,18
2021-02-04,7,15
2021-02-05,5,18
2021-02-06,3,19
2021-02-07,2,12
2021-02-08,5,17
2021-02-09,7,15
2021-02-10,11,16
2021-02-11,5,17
2021-02-12,3,20
2021-02-13,4,13
2021-02-14,2,10
2021-02-15,5,25
2021-02-16,8,19
2021-02-17,3,23
2021-02-18,6,26
2021-02-19,6,26
2021-02-20,1,22
2021-02-21,1,19
2021-02-22,2,18
2021-02-23,1,20
2021-02-24,3,18
2021-02-25,2,18
2021-02-26,4,20
2021-02-27,3,20
2021-02-28,2,22
2021-03-01,1,17
2021-03-02,1,23
2021-03-03,0,20
2021-03-04,2,17
2021-03-05,4,20
2021-03-06,6,15
2021-03-07,3,19
2021-03-08,5,17
2021-03-09,13,16
2021-03-10,10,16
2021-03-11,0,13
2021-03-12,4,18
2021-03-13,3,10
2021-03-14,3,13
2021-03-15,3,13
2021-03-16,3,21
2021-03-17,3,20
2021-03-18,2,18
2021-03-19,0,16
2021-03-20,1,11
2021-03-21,2,11
2021-03-22,3,12
2021-03-23,4,10
2021-03-24,3,16
2021-03-25,1,15
2021-03-26,2,15
2021-03-27,3,12
2021-03-28,1,15
2021-03-29,1,11
2021-03-30,2,19
2021-03-31,2,13
2021-04-01,1,14
2021-04-02,1,17
2021-04-03,1,12
2021-04-04,0,10
2021-04-05,2,10
2021-04-06,0,19
2021-04-07,0,13
2021-04-08,1,13
2021-04-09,3,14
2021-04-10,6,11
2021-04-11,1,13
2021-04-12,1,13
2021-04-13,2,17
2021-04-14,2,16
2021-04-15,1,18
2021-04-16,1,24
2021-04-17,2,24
2021-04-18,2,20
2021-04-19,2,20
2021-04-20,0,21
2021-04-21,3,20
2021-04-22,3,18
2021-04-23,3,16
2021-04-24,3,22
2021-04-25,2,21
2021-04-26,1,22
2021-04-27,2,19
2021-04-28,2,15
2021-04-29,1,19
2021-04-30,1,14
2021-05-01,1,15
2021-05-02,2,17
2021-05-03,4,18
2021-05-04,2,23
2021-05-05,6,18
2021-05-06,1,21
2021-05-07,1,22
2021-05-08,0,20
2021-05-09,2,18
2021-05-10,2,22
2021-05-11,1,16
2021-05-12,3,15
2021-05-13,4,16
2021-05-14,2,14
2021-05-15,13,19
2021-05-16,7,16
2021-05-17,11,20
2021-05-18,6,13
2021-05-19,5,21
2021-05-20,3,16
2021-05-21,1,23
2021-05-22,5,24
2021-05-23,6,22
2021-05-24,1,18
2021-05-25,4,18
2021-05-26,4,18
2021-05-27,6,21
2021-05-28,8,24
2021-05-29,5,21
2021-05-30,3,18
2021-05-31,6,16
2021-06-01,7,18
2021-06-02,6,22
2021-06-03,9,21
2021-06-04,2,21
2021-06-05,0,14
2021-06-06,1,20
2021-06-07,1,16
2021-06-08,10,26
2021-06-09,7,23
2021-06-10,7,29
2021-06-11,15,22
2021-06-12,15,20
2021-06-13,1,23
2021-06-14,0,18
2021-06-15,4,20
2021-06-16,3,17
2021-06-17,5,25
2021-06-18,4,13
2021-06-19,7,24
2021-06-20,4,15
2021-06-21,6,20
2021-06-22,2,22
2021-06-23,4,24
2021-06-24,5,23
2021-06-25,5,20
2021-06-26,5,17
2021-06-27,8,15
2021-06-28,3,16
2021-06-29,2,22
2021-06-30,1,24
2021-07-01,4,16
2021-07-02,1,20
2021-07-03,3,21
2021-07-04,4,16
2021-07-05,3,21
2021-07-06,7,19
2021-07-07,4,21
2021-07-08,3,17
2021-07-09,2,18
2021-07-10,3,20
2021-07-11,7,18
2021-07-12,5,21
2021-07-13,3,21
2021-07-14,3,14
2021-07-15,3,16
2021-07-16,9,19
2021-07-17,8,17
2021-07-18,0,0
2021-07-19,1,7
2021-07-20,1,15
2021-07-21,1,19
2021-07-22,8,15
2021-07-23,9,16
2021-07-24,1,20
2021-07-25,1,14
2021-07-26,2,14
2021-07-27,1,18
2021-07-28,8,15
2021-07-29,9,18
2021-07-30,5,19
2021-07-31,3,15
2021-08-01,0,20
2021-08-02,2,13
2021-08-03,3,17
2021-08-04,6,16
2021-08-05,2,12
2021-08-06,2,13
2021-08-07,4,13
2021-08-08,3,15
2021-08-09,9,13
2021-08-10,11,16
2021-08-11,6,21
2021-08-12,3,13
2021-08-13,3,13
2021-08-14,5,21
2021-08-15,2,17
2021-08-16,3,18
2021-08-17,8,16
2021-08-18,6,19
2021-08-19,2,17
2021-08-20,2,16
2021-08-21,4,23
2021-08-22,3,16
2021-08-23,2,21
2021-08-24,3,16
2021-08-25,4,16
2021-08-26,5,18
2021-08-27,6,17
2021-08-28,2,13
2021-08-29,2,16
2021-08-30,2,18
2021-08-31,2,20
2021-09-01,0,15
2021-09-02,2,17
2021-09-03,1,17
2021-09-04,0,20
2021-09-05,2,19
2021-09-06,4,11
2021-09-07,3,17
2021-09-08,1,20
2021-09-09,2,16
2021-09-10,0,19
2021-09-11,3,17
2021-09-12,6,12
2021-09-13,2,19
2021-09-14,6,14
2021-09-15,5,17
2021-09-16,1,17
2021-09-17,6,14
2021-09-18,1,12
2021-09-19,1,12
2021-09-20,1,14
2021-09-21,2,11
2021-09-22,1,13
2021-09-23,6,12
2021-09-24,2,8
2021-09-25,5,12
2021-09-26,2,11
2021-09-27,1,9
2021-09-28,2,19
2021-09-29,3,15
2021-09-30,3,16
2021-10-01,1,11
2021-10-02,1,13
2021-10-03,9,13
2021-10-04,0,16
2021-10-05,3,11
2021-10-06,1,15
2021-10-07,2,15
2021-10-08,10,11
2021-10-09,6,12
2021-10-10,4,10
2021-10-11,3,7
2021-10-12,2,14
2021-10-13,2,12
2021-10-14,0,15
2021-10-15,2,17
2021-10-16,4,9
2021-10-17,0,12
2021-10-18,2,10
2021-10-19,4,13
2021-10-20,4,11
2021-10-21,4,15
2021-10-22,3,16
2021-10-23,0,14
2021-10-24,2,11
2021-10-25,0,16
2021-10-26,3,21
2021-10-27,1,14
2021-10-28,3,16
2021-10-29,4,18
2021-10-30,3,14
2021-10-31,3,18
2021-11-01,1,12
2021-11-02,3,13
2021-11-03,0,15
2021-11-04,1,14
2021-11-05,5,16
2021-11-06,4,13
2021-11-07,5,13
2021-11-08,3,12
2021-11-09,6,14
2021-11-10,6,14
2021-11-11,8,13
2021-11-12,5,10
2021-11-13,15,12
2021-11-14,7,16
2021-11-15,8,15
2021-11-16,6,18
2021-11-17,5,15
2021-11-18,4,16
2021-11-19,4,17
2021-11-20,8,14
2021-11-21,6,12
2021-11-22,5,16
2021-11-23,2,16
2021-11-24,1,13
2021-11-25,3,10
2021-11-26,11,17
2021-11-27,5,11
2021-11-28,3,13
2021-11-29,0,15
2021-11-30,5,11
2021-12-01,6,12
2021-12-02,3,14
2021-12-03,3,11
2021-12-04,0,14
2021-12-05,4,17
2021-12-06,4,13
2021-12-07,3,13
2021-12-08,3,10
2021-12-09,4,12
2021-12-10,3,14
2021-12-11,9,9
2021-12-12,3,17
2021-12-13,4,15
2021-12-14,2,12
2021-12-15,2,14
2021-12-16,0,15
2021-12-17,2,15
2021-12-18,1,9
2021-12-19,4,16
2021-12-20,1,15
2021-12-21,0,15
2021-12-22,2,13
2021-12-23,2,13
2021-12-24,4,13
2021-12-25,4,10
2021-12-26,3,15
2021-12-27,2,14
2021-12-28,0,14
2021-12-29,1,15
2021-12-30,2,11
2021-12-31,2,16
2022-01-01,3,9
2022-01-02,2,12
2022-01-03,2,12
2022-01-04,3,12
2022-01-05,4,14
2022-01-06,1,15
2022-01-07,0,10
2022-01-08,2,10
2022-01-09,0,1
2022-01-10,4,0
2022-01-11,1,15
2022-01-12,1,9
2022-01-13,1,14
2022-01-14,1,8
2022-01-15,4,12
2022-01-16,2,13
2022-01-17,3,12
2022-01-18,5,14
2022-01-19,0,11
2022-01-20,3,7
2022-01-21,1,8
2022-01-22,4,11
2022-01-23,4,10
2022-01-24,1,9
2022-01-25,3,6
2022-01-26,5,12
2022-01-27,2,15
2022-01-28,1,10
2022-01-29,1,14
2022-01-30,2,7
2022-01-31,2,11
2022-02-01,3,14
2022-02-02,0,11
2022-02-03,0,12
2022-02-04,0,10
2022-02-05,1,10
2022-02-06,1,12
2022-02-07,2,9
2022-02-08,2,12
2022-02-09,1,11
2022-02-10,1,8
2022-02-11,1,11
2022-02-12,3,11
2022-02-13,2,10
2022-02-14,0,12
2022-02-15,1,15
2022-02-16,1,14
2022-02-17,2,12
2022-02-18,1,9
2022-02-19,1,15
2022-02-20,3,10
2022-02-21,2,12
2022-02-22,7,11
2022-02-23,7,11
2022-02-24,5,13
2022-02-25,6,16
2022-02-26,5,13
2022-02-27,3,15
2022-02-28,2,14
2022-03-01,0,14
2022-03-02,0,14
2022-03-03,0,11
2022-03-04,0,17
2022-03-05,0,12
2022-03-06,1,7
2022-03-07,0,13
2022-03-08,0,16
2022-03-09,0,12
2022-03-10,2,11
2022-03-11,2,14
2022-03-12,5,12
2022-03-13,1,13
2022-03-14,0,14
2022-03-15,0,12
2022-03-16,2,13
2022-03-17,0,12
2022-03-18,0,17
2022-03-19,1,14
2022-03-20,1,11
2022-03-21,5,14
2022-03-22,3,14
2022-03-23,0,12
2022-03-24,0,11
2022-03-25,1,12
2022-03-26,0,10
2022-03-27,0,11
2022-03-28,0,12
2022-03-29,0,10
2022-03-30,0,10
2022-03-31,1,6
2022-04-01,0,9
2022-04-02,2,9
2022-04-03,3,8
2022-04-04,1,9
2022-04-05,2,12
2022-04-06,4,7
2022-04-07,3,12
2022-04-08,1,10
2022-04-09,0,13
2022-04-10,4,6
2022-04-11,0,9
2022-04-12,1,12
2022-04-13,0,11
2022-04-14,1,8
2022-04-15,0,6
2022-04-16,0,8
2022-04-17,0,7
2022-04-18,1,7
2022-04-19,10,11
2022-04-20,1,6
2022-04-21,0,8
2022-04-22,0,8
2022-04-23,1,7
2022-04-24,0,8
2022-04-25,1,9
2022-04-26,0,6
2022-04-27,2,13
2022-04-28,1,9
2022-04-29,1,11
2022-04-30,4,8
2022-05-01,1,8
2022-05-02,1,10
2022-05-03,0,11
2022-05-04,0,10
2022-05-05,0,8
2022-05-06,4,8
2022-05-07,4,9
2022-05-08,6,6
2022-05-09,1,10
2022-05-10,2,7
2022-05-11,0,6
2022-05-12,0,9
2022-05-13,1,7
2022-05-14,5,9
2022-05-15,1,7
2022-05-16,2,8
2022-05-17,1,8
2022-05-18,3,10
2022-05-19,0,9
2022-05-20,3,9
2022-05-21,4,6
2022-05-22,3,11
2022-05-23,0,5
2022-05-24,0,8
2022-05-25,0,10
2022-05-26,2,4
2022-05-27,0,9
2022-05-28,2,7
2022-05-29,0,8
2022-05-30,0,9
2022-05-31,0,9
2022-06-01,2,8
2022-06-02,0,8
2022-06-03,1,10
2022-06-04,0,8
2022-06-05,1,5
2022-06-06,1,6
2022-06-07,1,14
2022-06-08,0,7
2022-06-09,0,11
2022-06-10,0,7
2022-06-11,0,8
2022-06-12,1,6
2022-06-13,0,8
2022-06-14,0,8
2022-06-15,1,8
2022-06-16,1,7
2022-06-17,1,6
2022-06-18,2,6
2022-06-19,0,7
2022-06-20,1,6
2022-06-21,1,9
2022-06-22,0,7
2022-06-23,0,11
2022-06-24,1,8
2022-06-25,2,7
2022-06-26,0,9
2022-06-27,0,7
2022-06-28,0,7
2022-06-29,1,7
2022-06-30,1,6
2022-07-01,1,6
2022-07-02,4,6
2022-07-03,3,7
2022-07-04,2,11
2022-07-05,0,7
2022-07-06,0,12
2022-07-07,1,6
2022-07-08,1,10
2022-07-09,2,8
2022-07-10,0,9
2022-07-11,0,10
2022-07-12,0,7
2022-07-13,0,14
2022-07-14,1,10
2022-07-15,0,8
2022-07-16,1,11
2022-07-17,2,11
2022-07-18,0,12
2022-07-19,0,10
2022-07-20,0,11
2022-07-21,1,5
2022-07-22,1,12
2022-07-23,2,11
2022-07-24,0,6
2022-07-25,0,8
2022-07-26,1,12
2022-07-27,0,10
2022-07-28,0,12
2022-07-29,0,9
2022-07-30,0,6
2022-07-31,1,8
2022-08-01,2,9
2022-08-02,0,8
2022-08-03,1,9
2022-08-04,0,7
2022-08-05,1,10
2022-08-06,1,9
2022-08-07,2,7
2022-08-08,1,8
2022-08-09,0,8
2022-08-10,0,6
2022-08-11,1,9
2022-08-12,3,9
2022-08-13,0,10
2022-08-14,1,6
2022-08-15,0,12
2022-08-16,1,10
2022-08-17,0,10
2022-08-18,1,4
2022-08-19,1,12
2022-08-20,0,10
2022-08-21,1,9
2022-08-22,1,13
2022-08-23,3,11
2022-08-24,0,11
2022-08-25,1,10
2022-08-26,0,14
2022-08-27,2,9
2022-08-28,3,11
2022-08-29,0,13
2022-08-30,2,10
2022-08-31,0,9
2022-09-01,1,11
2022-09-02,1,8
2022-09-03,2,8
2022-09-04,1,4
2022-09-05,0,7
2022-09-06,0,7
2022-09-07,0,10
2022-09-08,1,7
2022-09-09,2,8
2022-09-10,0,6
2022-09-11,1,11
2022-09-12,2,8
2022-09-13,0,7
2022-09-14,2,7
2022-09-15,0,9
2022-09-16,2,8
2022-09-17,3,12
2022-09-18,2,10
2022-09-19,2,12
2022-09-20,0,8
2022-09-21,0,9
2022-09-22,1,9
2022-09-23,2,12
2022-09-24,2,10
2022-09-25,0,8
2022-09-26,0,8
2022-09-27,0,4
2022-09-28,0,9
2022-09-29,0,6
2022-09-30,0,8
2022-10-01,4,9
2022-10-02,5,6
2022-10-03,1,7
2022-10-04,1,7
2022-10-05,2,5
2022-10-06,0,10
2022-10-07,0,6
2022-10-08,4,9
2022-10-09,0,4
2022-10-10,0,8
2022-10-11,3,10
2022-10-12,8,7
2022-10-13,5,10
2022-10-14,1,5
2022-10-15,2,8
2022-10-16,1,9
2022-10-17,0,7
2022-10-18,0,11
2022-10-19,0,8
2022-10-20,2,8
2022-10-21,3,10
2022-10-22,0,9
2022-10-23,2,6
2022-10-24,1,8
2022-10-25,0,11
2022-10-26,2,10
2022-10-27,1,9
2022-10-28,1,11
2022-10-29,1,10
2022-10-30,2,13
2022-10-31,0,11
2022-11-01,1,8
2022-11-02,0,10
2022-11-03,1,9
2022-11-04,1,10
2022-11-05,2,9
2022-11-06,0,8
2022-11-07,1,12
2022-11-08,0,10
2022-11-09,1,6
2022-11-10,3,14
2022-11-11,3,10
2022-11-12,1,11
2022-11-13,3,9
2022-11-14,1,13
2022-11-15,1,11
2022-11-16,0,12
2022-11-17,0,7
2022-11-18,3,11
2022-11-19,1,9
2022-11-20,0,8
2022-11-21,0,9
2022-11-22,0,8
2022-11-23,0,15
2022-11-24,0,12
2022-11-25,1,10
2022-11-26,0,6
2022-11-27,0,11
2022-11-28,0,13
2022-11-29,0,8
2022-11-30,1,6
2022-12-01,0,7
2022-12-02,2,7
2022-12-03,1,5
2022-12-04,0,6
2022-12-05,1,4
2022-12-06,1,7
2022-12-07,0,6
2022-12-08,0,6
2022-12-09,1,5
2022-12-10,3,7
2022-12-11,0,8
2022-12-12,0,5
2022-12-13,0,8
2022-12-14,1,3
2022-12-15,0,8
2022-12-16,0,6
2022-12-17,1,4
2022-12-18,0,7
2022-12-19,1,7
2022-12-20,2,5
2022-12-21,0,7
2022-12-22,0,4
2022-12-23,3,5
2022-12-24,1,4
2022-12-25,2,5
2022-12-26,1,6
2022-12-27,0,5
2022-12-28,1,7
2022-12-29,1,6
2022-12-30,4,7
2022-12-31,2,5
2023-01-01,1,6
2023-01-02,0,7
2023-01-03,1,9
2023-01-04,3,6
2023-01-05,2,8
2023-01-06,2,12
2023-01-07,1,6
2023-01-08,2,7
2023-01-09,1,7
2023-01-10,0,5
2023-01-11,4,9
2023-01-12,0,7
2023-01-13,2,9
2023-01-14,1,8
2023-01-15,1,8
2023-01-16,0,6
2023-01-17,1,7
2023-01-18,0,9
2023-01-19,0,8
2023-01-20,2,4
2023-01-21,1,5
2023-01-22,2,9
2023-01-23,0,8
2023-01-24,1,8
2023-01-25,0,8
2023-01-26,0,7
2023-01-27,1,6
2023-01-28,1,7
2023-01-29,1,7
2023-01-30,3,5
2023-01-31,1,7
2023-02-01,0,7
2023-02-02,0,6
2023-02-03,4,13
2023-02-04,3,9
2023-02-05,2,6
2023-02-06,1,9
2023-02-07,0,5
2023-02-08,1,6
2023-02-09,1,7
2023-02-10,0,9
2023-02-11,0,8
2023-02-12,0,6
2023-02-13,3,12
2023-02-14,3,7
2023-02-15,0,9
2023-02-16,1,9
2023-02-17,4,6
2023-02-18,3,9
2023-02-19,1,9
2023-02-20,0,9
2023-02-21,0,7
2023-02-22,2,6
2023-02-23,0,9
2023-02-24,0,8
2023-02-25,2,5
2023-02-26,4,6
2023-02-27,0,6
2023-02-28,2,5
2023-03-01,1,9
2023-03-02,1,4
2023-03-03,1,5
2023-03-04,2,4
2023-03-05,0,7
2023-03-06,1,8
2023-03-07,0,3
2023-03-08,3,6
2023-03-09,2,5
2023-03-10,0,4
2023-03-11,0,4
2023-03-12,0,5
2023-03-13,1,4
2023-03-14,2,6
2023-03-15,0,5
2023-03-16,5,4
2023-03-17,3,4
2023-03-18,0,5
2023-03-19,1,4
2023-03-20,0,5
2023-03-21,0,4
2023-03-22,1,5
2023-03-23,1,4
2023-03-24,2,6
2023-03-25,5,6
2023-03-26,2,4
2023-03-27,2,3
2023-03-28,2,2
2023-03-29,1,4
2023-03-30,1,4
2023-03-31,3,5
2023-04-01,1,3
2023-04-02,7,5
2023-04-03,4,4
2023-04-04,2,7
2023-04-05,0,5
2023-04-06,1,5
2023-04-07,0,5
2023-04-08,2,3
2023-04-09,2,6
2023-04-10,2,4
2023-04-11,1,6
2023-04-12,2,2
2023-04-13,1,7
2023-04-14,0,4
2023-04-15,1,5
2023-04-16,2,3
2023-04-17,2,3
2023-04-18,1,5
2023-04-19,1,5
2023-04-20,1,3
2023-04-21,2,2
2023-04-22,0,6
2023-04-23,4,5
2023-04-24,0,7
2023-04-25,0,3
2023-04-26,0,7
2023-04-27,1,3
2023-04-28,0,7
2023-04-29,0,3
2023-04-30,2,4
2023-05-01,3,2
2023-05-02,2,4
2023-05-03,0,3
2023-05-04,2,4
2023-05-05,2,3
2023-05-06,7,4
2023-05-07,1,5
2023-05-08,0,3
2023-05-09,0,4
2023-05-10,0,3
2023-05-11,0,8
2023-05-12,0,4
2023-05-13,2,7
2023-05-14,2,5
2023-05-15,1,4
2023-05-16,1,3
2023-05-17,2,5
2023-05-18,2,5
2023-05-19,3,3
2023-05-20,0,0
2023-05-21,3,6
2023-05-22,0,3
2023-05-23,4,2
2023-05-24,2,3
2023-05-25,0,3
2023-05-26,0,3
2023-05-27,1,3
2023-05-28,1,1
2023-05-29,1,4
2023-05-30,0,3
2023-05-31,5,4
2023-06-01,7,3
2023-06-02,0,7
2023-06-03,2,2
2023-06-04,1,7
2023-06-05,1,5
2023-06-06,0,3
2023-06-07,0,7
2023-06-08,2,9
2023-06-09,1,6
2023-06-10,1,4
2023-06-11,1,9
2023-06-12,1,6
2023-06-13,2,4
2023-06-14,2,4
2023-06-15,0,7
2023-06-16,1,7
2023-06-17,2,5
2023-06-18,0,8
2023-06-19,1,7
2023-06-20,2,7
2023-06-21,0,9
2023-06-22,2,6
2023-06-23,3,5
2023-06-24,2,8
2023-06-25,1,5
2023-06-26,2,8
2023-06-27,1,6
2023-06-28,0,10
2023-06-29,1,5
2023-06-30,1,8
2023-07-01,1,5
2023-07-02,1,6
2023-07-03,3,5
2023-07-04,2,5
2023-07-05,3,7
2023-07-06,2,3
2023-07-07,2,8
2023-07-08,0,5
2023-07-09,3,6
2023-07-10,2,6
2023-07-11,2,3
2023-07-12,1,5
2023-07-13,0,5
2023-07-14,2,7
2023-07-15,0,6
2023-07-16,0,5
2023-07-17,3,3
2023-07-18,5,5
2023-07-19,3,7
2023-07-20,1,6
2023-07-21,0,5
2023-07-22,3,7
2023-07-23,2,6
2023-07-24,2,8
2023-07-25,1,7
2023-07-26,2,7
2023-07-27,1,4
2023-07-28,0,6
2023-07-29,1,5
2023-07-30,1,3
2023-07-31,0,9
2023-08-01,1,9
2023-08-02,2,8
2023-08-03,5,5
2023-08-04,0,7
2023-08-05,1,3
2023-08-06,2,5
2023-08-07,3,6
2023-08-08,1,5
2023-08-09,1,6
2023-08-10,3,4
2023-08-11,2,4
2023-08-12,1,6
2023-08-13,0,5
2023-08-14,0,5
2023-08-15,1,5
2023-08-16,1,3
2023-08-17,2,8
2023-08-18,2,4
2023-08-19,0,4
2023-08-20,2,8
2023-08-21,0,5
2023-08-22,2,8
2023-08-23,2,8
2023-08-24,2,7
2023-08-25,4,4
2023-08-26,0,9
2023-08-27,1,4
2023-08-28,0,6
2023-08-29,1,7
2023-08-30,1,7
2023-08-31,1,6
2023-09-01,0,9
2023-09-02,2,6
2023-09-03,0,7
2023-09-04,0,6
2023-09-05,0,6
2023-09-06,0,7
2023-09-07,0,8
2023-09-08,0,7
2023-09-09,0,6
2023-09-10,0,9
2023-09-11,0,8
2023-09-12,0,10
2023-09-13,0,9
2023-09-14,0,7
2023-09-15,0,9
2023-09-16,3,5
2023-09-17,1,9
2023-09-18,3,5
2023-09-19,1,7
2023-09-20,0,5
2023-09-21,0,6
2023-09-22,0,6
2023-09-23,0,5
2023-09-24,0,11
2023-09-25,1,6
2023-09-26,2,7
2023-09-27,1,8
2023-09-28,1,6
2023-09-29,3,7
2023-09-30,2,5
2023-10-01,0,9
2023-10-02,1,4
2023-10-03,0,9
2023-10-04,0,3
2023-10-05,0,9
2023-10-06,0,9
2023-10-07,2,4
2023-10-08,0,5
2023-10-09,0,7
2023-10-10,1,7
2023-10-11,1,6
2023-10-12,0,7
2023-10-13,2,8
2023-10-14,0,6
2023-10-15,1,9
2023-10-16,1,6
2023-10-17,0,6
2023-10-18,0,5
2023-10-19,2,7
2023-10-20,4,10
2023-10-21,0,4
2023-10-22,1,7
2023-10-23,2,6
2023-10-24,2,4
2023-10-25,0,7
2023-10-26,1,4
2023-10-27,3,6
2023-10-28,6,8
2023-10-29,2,6
2023-10-30,0,10
2023-10-31,1,6
2023-11-01,1,7
2023-11-02,0,9
2023-11-03,0,8
2023-11-04,0,4
2023-11-05,1,5
2023-11-06,0,6
2023-11-07,0,7
2023-11-08,0,8
2023-11-09,0,5
2023-11-10,0,6
2023-11-11,0,7
2023-11-12,0,6
2023-11-13,0,5
2023-11-14,0,5
2023-11-15,1,4
2023-11-16,0,5
2023-11-17,0,3
2023-11-18,0,4
2023-11-19,0,6
2023-11-20,1,5
2023-11-21,1,2
2023-11-22,0,6
2023-11-23,1,7
2023-11-24,0,5
2023-11-25,1,5
2023-11-26,0,9
2023-11-27,1,3
2023-11-28,0,4
2023-11-29,0,5
2023-11-30,0,5
2023-12-01,0,6
2023-12-02,0,4
2023-12-03,1,8
2023-12-04,0,4
2023-12-05,1,0
2023-12-06,0,1
2023-12-07,1,1
2023-12-08,1,1
2023-12-09,0,0
2023-12-10,0,0
2023-12-11,0,3
2023-12-12,0,0
2023-12-13,1,0
2023-12-14,2,1
2023-12-15,0,3
2023-12-16,1,0
2023-12-17,0,0
2023-12-18,1,1
2023-12-19,1,1
2023-12-20,1,1
2023-12-21,0,2
2023-12-22,0,0
2023-12-23,2,0
2023-12-24,4,2
2023-12-25,0,3
2023-12-26,2,1
2023-12-27,1,3
2023-12-28,3,1
2023-12-29,2,1
2023-12-30,0,0
2023-12-31,0,1
2024-01-01,1,2
2024-01-02,3,1
2024-01-03,6,0
2024-01-04,1,3
2024-01-05,0,0
2024-01-06,1,2
2024-01-07,0,1
2024-01-08,2,2
2024-01-09,0,1
2024-01-10,1,2
2024-01-11,2,1
2024-01-12,1,1
2024-01-13,0,3
2024-01-14,0,0
2024-01-15,1,1
2024-01-16,1,2
2024-01-17,0,1
2024-01-18,0,2
2024-01-19,2,1
2024-01-20,0,4
2024-01-21,0,4
2024-01-22,0,2
2024-01-23,0,2
2024-01-24,0,3
2024-01-25,1,2
2024-01-26,0,2
2024-01-27,0,4
2024-01-28,1,1
2024-01-29,2,0
2024-01-30,1,4
2024-01-31,1,1
2024-02-01,2,2
2024-02-02,0,2
2024-02-03,1,1
2024-02-04,0,0
2024-02-05,0,2
2024-02-06,0,1
2024-02-07,0,4
2024-02-08,3,0
2024-02-09,1,3
2024-02-10,0,2
2024-02-11,0,2
2024-02-12,0,1
2024-02-13,0,2
2024-02-14,0,3
2024-02-15,0,0
2024-02-16,0,1
2024-02-17,0,1
2024-02-18,1,0
2024-02-19,0,1
2024-02-20,0,2
2024-02-21,1,1
2024-02-22,0,1
2024-02-23,0,1
2024-02-24,0,0
2024-02-25,0,0
2024-02-26,0,0
2024-02-27,0,1
2024-02-28,1,0
2024-02-29,0,1
2024-03-01,0,1
2024-03-02,0,0
2024-03-03,0,3
2024-03-04,0,0
2024-03-05,0,1
2024-03-06,0,0
2024-03-07,0,3
2024-03-08,0,2
2024-03-09,1,3
2024-03-10,0,0
2024-03-11,0,0
2024-03-12,0,1
2024-03-13,0,1
2024-03-14,0,0
2024-03-15,0,1
2024-03-16,0,1
2024-03-17,2,0
2024-03-18,1,2
2024-03-19,0,0
2024-03-20,0,3
2024-03-21,0,1
2024-03-22,1,2
2024-03-23,1,1
2024-03-24,0,0
2024-03-25,0,1
2024-03-26,1,0
2024-03-27,0,0
2024-03-28,0,2
2024-03-29,0,0
2024-03-30,0,1
2024-03-31,0,1
2024-04-01,0,1
2024-04-02,0,0
2024-04-03,0,0
2024-04-04,0,0
2024-04-05,0,0
2024-04-06,0,0
2024-04-07,0,1
2024-04-08,0,1
2024-04-09,0,2
2024-04-10,0,0
2024-04-11,0,0
2024-04-12,0,1
2024-04-13,1,1
2024-04-14,2,0
2024-04-15,0,2
2024-04-16,0,2
2024-04-17,0,0
